Weather History for Lake Charles Regional, LA

Change the Weather History Date:

Friday, October 28, 2011

  Actual Average Record
Temperature  
Mean Temperature 59 °F 67 °F  
Max Temperature 68 °F 78 °F 92 °F (1927)
Min Temperature 49 °F 56 °F 35 °F (1898)
Degree Days  
Heating Degree Days 6 2  
Month to date heating degree days 30 26  
Since 1 July heating degree days 30 27  
Cooling Degree Days 0 4  
Month to date cooling degree days 151 182  
Year to date cooling degree days 3157 2722  
Growing Degree Days 10 (Base 50)    
Moisture  
Dew Point 53 °F    
Average Humidity 78    
Maximum Humidity 93    
Minimum Humidity 62    
Precipitation  
Precipitation 0.27 in 0.17 in 3.24 in (1985)
Month to date precipitation 0.58 4.39  
Year to date precipitation 31.55 47.87  
Snow  
Snow 0.00 in 0.00 in 0.00 in ()
Month to date snowfall 0.0 0.0  
Since 1 July snowfall 0.0 0.0  
Since 1 September snowfall 0.0 0.0  
Snow Depth 0.00 in    
Sea Level Pressure  
Sea Level Pressure 30.05 in    
Wind  
Wind Speed 13 mph (North)    
Max Wind Speed 21 mph    
Max Gust Speed 29 mph    
Visibility 9 miles    
Events Rain    
T = Trace of Precipitation, MM = Missing Value Source: NWS Daily Summary

Daily Weather History Graph

Daily Weather History Graph

Search for Another Location

Airport:

Trip Planner

Search our weather history database for the weather conditions in past years. The results will help you decide how hot, cold, wet, or windy it might be!

Date:

Astronomy

Oct. 28, 2011 Rise Set
Actual Time 7:23 AM CDT 6:29 PM CDT
Civil Twilight 6:59 AM CDT 6:53 PM CDT
Nautical Twilight 6:30 AM CDT 7:21 PM CDT
Astronomical Twilight 6:03 AM CDT 7:49 PM CDT
Moon 9:27 AM CDT (10/28) 8:05 PM CDT (10/28)
Length of Visible Light 11h 54m
Length of Day
11h 05m
Waxing Crescent, 5% of the Moon is Illuminated
Oct 28
Waxing Crescent
Nov 2
First Quarter
Nov 10
Full
Nov 18
Last Quarter
Nov 25
New

Hourly Weather History & Observations

Time (CDT) Temp. Dew Point Humidity Pressure Visibility Wind Dir Wind Speed Gust Speed Precip Events Conditions
12:53 AM 66.9 °F 64.9 °F 93% 29.91 in 8.0 mi Calm Calm - N/A   Partly Cloudy
1:53 AM 66.9 °F 64.9 °F 93% 29.92 in 8.0 mi North 3.5 mph - N/A   Overcast
2:11 AM 68.0 °F 64.4 °F 88% 29.90 in 9.0 mi North 6.9 mph - N/A   Overcast
2:34 AM 64.4 °F 62.6 °F 94% 29.93 in 7.0 mi NW 13.8 mph 21.9 mph 0.00 in Rain Rain
2:39 AM 64.4 °F 62.6 °F 94% 29.93 in 5.0 mi NNW 17.3 mph 24.2 mph 0.01 in Rain Rain
2:53 AM 63.0 °F 61.0 °F 93% 29.94 in 9.0 mi NNW 18.4 mph 25.3 mph 0.02 in Rain Light Rain
3:14 AM 62.6 °F 60.8 °F 94% 29.93 in 10.0 mi North 12.7 mph 23.0 mph 0.01 in Rain Light Rain
3:30 AM 62.6 °F 60.8 °F 94% 29.92 in 10.0 mi North 13.8 mph 23.0 mph 0.01 in Rain Light Rain
3:53 AM 62.1 °F 59.0 °F 90% 29.96 in 10.0 mi North 11.5 mph - 0.01 in   Overcast
4:07 AM 62.6 °F 59.0 °F 88% 29.94 in 10.0 mi North 9.2 mph - 0.00 in Rain Light Rain
4:50 AM 60.8 °F 57.2 °F 88% 29.96 in 2.0 mi NNE 5.8 mph - 0.12 in Rain Heavy Rain
4:53 AM 60.1 °F 57.9 °F 93% 29.99 in 2.0 mi North 12.7 mph 16.1 mph 0.14 in Rain Heavy Rain
5:09 AM 60.8 °F 57.2 °F 88% 29.97 in 5.0 mi North 9.2 mph - 0.10 in Rain Rain
5:53 AM 59.0 °F 55.9 °F 90% 30.01 in 10.0 mi North 12.7 mph - 0.10 in   Overcast
6:01 AM 59.0 °F 55.4 °F 88% 29.98 in 10.0 mi North 11.5 mph - N/A   Overcast
6:06 AM 59.0 °F 55.4 °F 88% 29.99 in 10.0 mi North 11.5 mph - N/A   Overcast
6:30 AM 57.2 °F 55.4 °F 94% 30.00 in 10.0 mi North 10.4 mph - N/A   Overcast
6:44 AM 57.2 °F 55.4 °F 94% 30.00 in 10.0 mi North 16.1 mph 20.7 mph N/A   Overcast
6:53 AM 57.9 °F 55.0 °F 90% 30.02 in 10.0 mi North 10.4 mph - N/A   Overcast
7:33 AM 57.2 °F 53.6 °F 88% 30.02 in 10.0 mi North 11.5 mph - N/A   Overcast
7:53 AM 57.0 °F 54.0 °F 89% 30.05 in 10.0 mi North 12.7 mph 19.6 mph N/A   Overcast
8:53 AM 57.0 °F 53.1 °F 87% 30.08 in 10.0 mi North 16.1 mph - N/A   Overcast
9:53 AM 55.9 °F 52.0 °F 87% 30.09 in 10.0 mi North 12.7 mph 20.7 mph N/A   Overcast
10:30 AM 57.2 °F 51.8 °F 82% 30.08 in 10.0 mi North 15.0 mph - N/A   Overcast
10:53 AM 57.0 °F 52.0 °F 83% 30.11 in 10.0 mi North 11.5 mph - N/A   Overcast
11:45 AM 57.2 °F 51.8 °F 82% 30.09 in 10.0 mi NNW 16.1 mph 20.7 mph N/A   Overcast
11:53 AM 57.2 °F 50.0 °F 77% 30.09 in 10.0 mi North 17.3 mph 21.9 mph N/A   Overcast
12:53 PM 60.1 °F 48.9 °F 67% 30.10 in 10.0 mi North 16.1 mph 23.0 mph N/A   Overcast
1:53 PM 60.1 °F 48.9 °F 67% 30.09 in 10.0 mi North 16.1 mph - N/A   Overcast
2:53 PM 59.0 °F 48.0 °F 67% 30.09 in 10.0 mi North 18.4 mph 25.3 mph N/A   Overcast
3:53 PM 57.0 °F 46.9 °F 69% 30.09 in 10.0 mi North 18.4 mph 27.6 mph N/A   Overcast
4:53 PM 57.0 °F 46.9 °F 69% 30.12 in 10.0 mi North 17.3 mph 23.0 mph N/A   Overcast
5:53 PM 57.0 °F 46.0 °F 67% 30.15 in 10.0 mi North 16.1 mph 21.9 mph N/A   Overcast
6:02 PM 57.2 °F 44.6 °F 63% 30.13 in 10.0 mi North 13.8 mph 21.9 mph N/A   Overcast
6:53 PM 57.0 °F 46.0 °F 67% 30.17 in 10.0 mi North 10.4 mph - N/A   Overcast
7:53 PM 57.0 °F 45.0 °F 64% 30.20 in 10.0 mi North 13.8 mph 21.9 mph N/A   Overcast
8:53 PM 55.0 °F 44.1 °F 67% 30.22 in 10.0 mi North 9.2 mph - N/A   Scattered Clouds
9:53 PM 54.0 °F 44.1 °F 69% 30.23 in 10.0 mi North 10.4 mph - N/A   Clear
10:53 PM 52.0 °F 42.1 °F 69% 30.24 in 10.0 mi NNE 9.2 mph - N/A   Clear
11:53 PM 50.0 °F 42.1 °F 74% 30.24 in 10.0 mi North 5.8 mph - N/A   Clear